RS21S (CUBESX-HSE-2) (53383 NORAD) Tracking and Keplerian Element Data

This shows tracking and keplerian element data for the satellite.

Feedback or suggestion? Click here.




ElementValue
Catalog53383
NameRS21S (CUBESX-HSE-2)
Epoch Orbit745
Epoch Day270.19431189
Epoch Year2022
RAAN171.348
Inclination97.4313
Eccentricity0.0002208
Argument of Perigee291.2268
Mean Anonmoly172.3216
Mean Motion15.25751507
Decay Rate7.569E-05
L11 53383U 22096P 22270.19431189 .00007569 00000+0 29935-3 0 9997
L22 53383 97.4313 171.3480 0002208 291.2268 172.3216 15.25751507 7453

Live tracking and technical data element details for RS21S (CUBESX-HSE-2) (NORAD 53383). RS21S (CUBESX-HSE-2) can be tracked NOW for your location showing map with azimuth and elevation plus other details from your city location.

Track the satellite on the map from your city or location and see movement details for azimuth, elevation, latitude, longitude, range, height, and movement on the map or in text.







IsCatalogInMostPopularTable: catalog: 53383, numindb: 4
Update: records affected: 1



GetName: 53383 RS21S (CUBESX-HSE-2)

Hit Count: updated at: Thu, 29 Sep 2022 11:50:55 GMT